Location: Henham
(51.9333°N, 0.2500°E)
Time: 13:18:52
(UTC+00:00)

CSL-04 Rocket - Pass Details

Date: 23 October 2019
Orbit: 805 x 861 km, 99.0° (Epoch: 13 November)

Event Time Altitude Azimuth Distance (km) Brightness Sun altitude
Rises 18:15:24 0° 163° (SSE) 3,415 6.7 -14.0°
Reaches altitude 10° 18:17:47 10° 164° (SSE) 2,478 6.0 -14.3°
Maximum altitude 18:23:18 85° 254° (WSW) 856 3.7 -15.2°
Drops below altitude 10° 18:28:47 10° 343° (NNW) 2,461 6.3 -16.0°
Sets 18:31:08 0° 344° (NNW) 3,391 7.1 -16.4°
